Morgantown, WV

5:53 AM EDT on September 26, 2017 (GMT -0400)
Morgantown Municipal-Hart

Weather History for KMGW - July, 2012

Change the Weather History Date:

Wednesday, July 18, 2012

  Actual Average Record
Temperature  
Mean Temperature 78 °F 73 °F  
Max Temperature 88 °F 84 °F 97 °F (1968)
Min Temperature 68 °F 63 °F 45 °F (1924)
Degree Days  
Heating Degree Days 0 0  
Month to date heating degree days 0 0  
Since 1 June heating degree days 19 31  
Since 1 July heating degree days 0 0  
Cooling Degree Days 13 8  
Month to date cooling degree days 264 144  
Year to date cooling degree days 623 373  
Since 1 June cooling degree days 446 306  
Growing Degree Days 28 (Base 50)    
Moisture  
Dew Point 70 °F    
Average Humidity 76    
Maximum Humidity 97    
Minimum Humidity 55    
Precipitation  
Precipitation 0.69 in 0.15 in 4.33 in (1996)
Month to date precipitation 1.15 2.77  
Year to date precipitation 15.23 24.07  
Sea Level Pressure  
Sea Level Pressure 29.97 in    
Wind  
Wind Speed 5 mph (SSW)    
Max Wind Speed 21 mph    
Max Gust Speed 26 mph    
Visibility 7 miles    
Events Fog , Rain , Thunderstorm    
T = Trace of Precipitation, MM = Missing Value Source: NWS Daily Summary

Daily Weather History Graph

Daily Weather History Graph

Search for Another Location

Airport or City:

Trip Planner

Search our weather history database for the weather conditions in past years. The results will help you decide how hot, cold, wet, or windy it might be!

Date:

Astronomy

Jul. 18, 2012 Rise Set
Actual Time 6:07 AM EDT 8:44 PM EDT
Civil Twilight 5:35 AM EDT 9:15 PM EDT
Nautical Twilight 4:56 AM EDT 9:54 PM EDT
Astronomical Twilight 4:12 AM EDT 10:38 PM EDT
Moon 5:39 AM EDT (7/18) 8:13 PM EDT (7/18)
Length of Visible Light 15h 39m
Length of Day
14h 37m
Waning Crescent, 0% of the Moon is Illuminated
Jul 18
Waning Crescent
Jul 19
New
Jul 26
First Quarter
Aug 1
Full
Aug 9
Last Quarter

Hourly Weather History & Observations

Time (EDT) Temp. Heat Index Dew Point Humidity Pressure Visibility Wind Dir Wind Speed Gust Speed Precip Events Conditions
12:53 AM 77.0 °F - 69.1 °F 76% 29.93 in 10.0 mi South 3.5 mph - N/A   Clear
1:53 AM 77.0 °F - 69.1 °F 76% 29.91 in 10.0 mi SSW 3.5 mph - N/A   Scattered Clouds
2:53 AM 77.0 °F - 70.0 °F 79% 29.90 in 10.0 mi South 6.9 mph - N/A   Clear
3:53 AM 77.0 °F - 70.0 °F 79% 29.89 in 10.0 mi Calm Calm - N/A   Clear
4:53 AM 77.0 °F - 70.0 °F 79% 29.90 in 10.0 mi South 4.6 mph - N/A   Mostly Cloudy
5:53 AM 77.0 °F - 70.0 °F 79% 29.92 in 10.0 mi SSW 4.6 mph - N/A   Mostly Cloudy
6:53 AM 77.0 °F - 70.0 °F 79% 29.94 in 10.0 mi SSW 5.8 mph - N/A   Mostly Cloudy
7:53 AM 78.1 °F - 71.1 °F 79% 29.96 in 10.0 mi South 4.6 mph - N/A   Partly Cloudy
8:53 AM 80.1 °F 83.6 °F 71.1 °F 74% 29.96 in 10.0 mi SSW 4.6 mph - N/A   Partly Cloudy
9:43 AM 80.6 °F 84.6 °F 71.6 °F 74% 30.01 in 10.0 mi SW 8.1 mph - N/A   Mostly Cloudy
9:53 AM 81.0 °F 85.2 °F 72.0 °F 74% 29.98 in 10.0 mi SW 6.9 mph - N/A   Overcast
10:31 AM 82.4 °F 87.2 °F 71.6 °F 70% 30.01 in 10.0 mi SSW 4.6 mph - N/A   Scattered Clouds
10:53 AM 82.9 °F 88.0 °F 72.0 °F 69% 29.98 in 10.0 mi SW 10.4 mph 16.1 mph N/A   Mostly Cloudy
11:06 AM 84.2 °F 89.6 °F 71.6 °F 66% 30.01 in 10.0 mi SW 5.8 mph - N/A   Scattered Clouds
11:53 AM 87.1 °F 92.8 °F 71.1 °F 59% 29.97 in 10.0 mi Variable 4.6 mph - N/A   Partly Cloudy
12:53 PM 84.0 °F 88.4 °F 70.0 °F 63% 29.96 in 10.0 mi Variable 6.9 mph - N/A   Clear
1:53 PM 86.0 °F 90.1 °F 69.1 °F 57% 29.92 in 10.0 mi SSW 8.1 mph 16.1 mph N/A   Clear
2:53 PM 88.0 °F 92.9 °F 70.0 °F 55% 29.90 in 10.0 mi SSW 8.1 mph 17.3 mph N/A   Partly Cloudy
3:53 PM 86.0 °F 90.7 °F 70.0 °F 59% 29.91 in 10.0 mi Variable 4.6 mph - N/A   Partly Cloudy
4:18 PM 78.8 °F - 69.8 °F 74% 29.99 in 10.0 mi NNE 10.4 mph 20.7 mph N/A   Overcast
4:53 PM 73.9 °F - 66.9 °F 79% 29.99 in 8.0 mi West 11.5 mph 17.3 mph 0.00 in Rain Light Rain
4:57 PM 71.6 °F - 68.0 °F 88% 30.02 in 2.5 mi Variable 5.8 mph 17.3 mph 0.04 in Rain , Thunderstorm Thunderstorms and Rain
5:03 PM 71.6 °F - 69.8 °F 94% 30.01 in 0.8 mi Variable 3.5 mph - 0.11 in Rain , Thunderstorm Heavy Thunderstorms and Rain
5:15 PM 69.8 °F - 68.0 °F 94% 30.00 in 0.2 mi Calm Calm - 0.39 in Fog , Rain , Thunderstorm Heavy Thunderstorms and Rain
5:22 PM 69.8 °F - 69.8 °F 100% 29.98 in 1.0 mi ESE 5.8 mph - 0.45 in Rain , Thunderstorm Heavy Thunderstorms and Rain
5:37 PM 69.8 °F - 69.8 °F 100% 29.98 in 3.0 mi SW 4.6 mph - 0.50 in Rain , Thunderstorm Thunderstorms and Rain
5:53 PM 71.1 °F - 69.1 °F 93% 29.96 in 5.0 mi East 4.6 mph - 0.51 in Rain , Thunderstorm Light Thunderstorms and Rain
6:14 PM 71.6 °F - 68.0 °F 88% 30.02 in 6.0 mi WNW 6.9 mph 21.9 mph 0.01 in Rain , Thunderstorm Light Thunderstorms and Rain
6:53 PM 71.1 °F - 69.1 °F 93% 30.01 in 2.5 mi Calm Calm - 0.05 in Rain , Thunderstorm Thunderstorms and Rain
7:02 PM 69.8 °F - 69.8 °F 100% 30.02 in 4.0 mi South 4.6 mph - 0.01 in Rain , Thunderstorm Light Thunderstorms and Rain
7:06 PM 69.8 °F - 69.8 °F 100% 30.02 in 1.8 mi SSE 6.9 mph - 0.02 in Rain , Thunderstorm Light Thunderstorms and Rain
7:22 PM 69.8 °F - 69.8 °F 100% 29.99 in 3.0 mi SE 5.8 mph - 0.06 in Rain , Thunderstorm Thunderstorms and Rain
7:46 PM 69.8 °F - 69.8 °F 100% 29.99 in 4.0 mi SSW 6.9 mph - 0.10 in Rain Light Rain
7:53 PM 70.0 °F - 69.1 °F 97% 29.96 in 4.0 mi SW 6.9 mph - 0.11 in Rain Light Rain
8:25 PM 69.8 °F - 69.8 °F 100% 30.01 in 5.0 mi WSW 4.6 mph - 0.01 in Rain Light Rain
8:36 PM 69.8 °F - 69.8 °F 100% 30.01 in 5.0 mi WSW 5.8 mph - 0.02 in   Mostly Cloudy
8:53 PM 70.0 °F - 69.1 °F 97% 29.98 in 9.0 mi South 10.4 mph - 0.02 in   Overcast
9:12 PM 69.8 °F - 68.0 °F 94% 29.99 in 9.0 mi South 10.4 mph - N/A   Scattered Clouds
9:53 PM 70.0 °F - 68.0 °F 93% 29.97 in 10.0 mi Calm Calm - N/A   Clear
10:53 PM 69.1 °F - 68.0 °F 96% 29.97 in 5.0 mi SE 3.5 mph - N/A   Clear
11:16 PM 69.8 °F - 68.0 °F 94% 30.01 in 6.0 mi Calm Calm - N/A   Partly Cloudy
11:53 PM 69.1 °F - 68.0 °F 96% 29.99 in 6.0 mi Calm Calm - N/A   Clear